Regional Weather Roundup
Issued by NWS Charleston, WV

Home | Current Version | Previous Version | Graphics & Text | Print | Product List | Glossary On
Versions: 1 2 3 4 5 6 7 8 9 10 11 12 13 14 15 16 17 18 19 20 21 22 23 24 25 26 27 28
000
ASUS41 KRLX 102010
RWRRLX
West Virginia Regional Weather Roundup
National Weather Service Charleston WV
300 PM EST SUN DEC 10 2017

Note: "fair" indicates few or no clouds below 12,000 feet with no
significant weather and/or obstructions to visibility.

WVZ003-102100-
Northern Panhandle of West Virginia

CITY           SKY/WX    TMP DP  RH WIND       PRES   REMARKS
WHEELING       CLOUDY    30  16  56 SW14G23   29.96F
$$

WVZ009-102100-
Northwest West Virginia

CITY           SKY/WX    TMP DP  RH WIND       PRES   REMARKS
PARKERSBURG    CLOUDY    33  17  51 SW10G22   30.05F
$$

WVZ006-102100-
Western West Virginia

CITY           SKY/WX    TMP DP  RH WIND       PRES   REMARKS
HUNTINGTON     CLOUDY    36  13  38 SW12G17   30.05F
$$

WVZ015-102100-
West Central West Virginia

CITY           SKY/WX    TMP DP  RH WIND       PRES   REMARKS
CHARLESTON     PTSUNNY   37  18  46 SW10      30.05F
$$

WVZ022-031-102100-
North Central West Virginia

CITY           SKY/WX    TMP DP  RH WIND       PRES   REMARKS
CLARKSBURG     PTSUNNY   33  19  56 SW12G22   30.02S
MORGANTOWN     CLOUDY    32  17  54 SW8G17    30.00S
$$

WVZ025-035-042-045-102100-
Southern West Virginia

CITY           SKY/WX    TMP DP  RH WIND       PRES   REMARKS
BECKLEY        SUNNY     32  16  51 W12       30.00F
LOGAN          CLOUDY    36  18  48 CALM      30.04F
BLUEFIELD      SUNNY     31  14  49 W12G18    30.00F
LEWISBURG      SUNNY     33  16  50 W12       30.01F
$$

WVZ047-102100-
Northern Mountains of West Virginia

CITY           SKY/WX    TMP DP  RH WIND       PRES   REMARKS
ELKINS         MOSUNNY   30  16  56 SW8       29.98F
$$

WVZ052-102100-
Eastern Panhandle of West Virginia

CITY           SKY/WX    TMP DP  RH WIND       PRES   REMARKS
MARTINSBURG    SUNNY     38  17  42 W12       30.00F
PETERSBURG     SUNNY     37  17  45 SW7       30.00F
$$




USA.gov is the U.S. government's official web portal to all federal, state and local government web resources and services.